RH
17 20 18 20 22 38 69 68 46 49 53 60 77 92 100 91 91 82 86 97 95 98 85 85 84 84 84 73 55 54 40 38 42
18 20 25 44 33 30 48 57 56 61 55 57 57 68 79 80 80 87 90 93 97 98 89 80 84 94 96 89 70 69 57 47 49
19 24 28 59 90 86 62 51 52 59 63 67 58 60 61 60 64 68 68 67 72 86 93 100 98 80 90 95 81 69 62 47 37
36 27 22 58 93 100 98 83 56 48 59 65 64 64 55 48 51 61 60 57 52 54 62 65 66 95 97 100 94 66 53 43 39
49 40 23 26 58 98 100 100 100 85 61 53 53 53 54 56 54 56 58 56 57 58 56 53 73 60 74 83 77 62 56 43 42
55 45 24 25 39 61 100 100 100 98 97 69 66 61 60 51 60 70 55 56 50 84 58 70 79 70 85 100 97 73 66 52 54
65 40 26 24 34 45 62 97 100 86 90 98 99 99 88 86 92 99 100 99 92 95 100 100 100 100 100 100 97 64 61 71 65
56 42 35 26 26 71 41 88 100 100 99 93 73 86 95 99 100 97 100 100 100 100 100 100 100 100 100 100 100 80 75 83 98
57 38 34 28 27 74 76 65 100 100 100 100 91 91 90 86 92 100 100 100 100 100 100 100 100 100 100 100 91 100 100 100 100
55 44 33 28 29 36 88 79 80 100 100 100 89 100 96 90 92 99 100 100 100 100 100 100 100 100 100 100 100 100 100 100 100
66 38 37 29 26 30 41 94 91 96 100 100 87 92 92 87 96 96 100 100 100 100 100 100 100 100 100 100 100 100 100 100 100
60 51 43 31 26 30 27 42 100 100 100 100 95 100 94 91 97 99 100 100 100 100 100 100 100 100 100 100 100 100 100 100 99
61 49 46 37 30 30 27 26 37 97 100 100 100 100 96 92 83 98 88 96 100 100 100 100 100 100 100 100 100 100 92 99 99
61 49 56 43 36 34 31 25 31 37 70 96 100 100 92 79 82 83 94 90 97 96 100 100 100 100 100 100 100 100 100 100 100
60 56 61 68 51 37 41 26 27 29 29 32 36 38 43 45 50 59 67 83 90 100 98 97 98 100 100 100 100 100 100 100 100
81 79 63 100 95 57 43 38 26 27 26 26 24 25 24 22 25 34 47 59 92 100 100 100 100 96 100 100 100 100 100 100 100
100 100 55 46 100 79 45 51 32 27 27 27 27 25 24 22 23 27 44 52 63 86 100 100 100 100 100 100 95 100 100 100 100
100 100 99 57 70 100 68 42 54 32 28 30 30 30 29 36 36 30 50 80 99 100 100 97 93 94 97 100 100 100 100 100 100
100 100 100 66 64 84 94 49 50 51 34 33 38 36 34 36 48 46 56 80 72 100 100 100 100 100 100 100 100 100 100 100 100
100 100 100 90 86 100 100 74 46 58 49 38 39 43 46 49 55 55 57 69 75 76 100 93 98 98 93 100 100 100 100 100 93
Wind_Speed
58 42 25 26 39 52 53 48 55 58 59 59 58 55 56 55 53 56 56 55 49 48 45 47 43 38 37 35 36 37 37 40 40
58 44 23 19 29 41 54 56 54 54 55 57 62 64 62 59 58 56 55 53 49 48 53 48 48 44 43 42 39 38 37 38 39
57 53 29 18 20 27 30 50 59 59 57 57 63 62 62 62 59 61 61 60 58 53 52 49 47 47 48 49 49 46 44 44 47
56 56 44 19 17 21 26 29 38 55 55 56 59 59 63 63 61 63 60 61 60 60 58 59 57 57 58 55 54 52 51 51 51
58 58 52 36 22 25 33 34 35 38 45 50 51 55 58 56 57 62 61 60 58 59 58 58 57 58 60 61 59 55 52 53 53
57 53 52 43 35 26 34 32 37 41 44 45 46 49 53 57 54 56 58 58 59 58 62 62 59 58 59 59 62 60 57 54 51
51 51 52 47 44 36 33 34 34 37 41 42 44 46 49 51 52 52 51 49 51 54 54 54 55 57 57 58 58 57 53 52 51
48 54 52 49 46 45 36 36 34 41 40 41 40 42 42 41 43 44 47 50 52 52 53 54 56 55 57 60 57 57 55 54 49
51 56 53 46 46 48 45 40 35 38 42 44 47 45 44 42 43 44 46 50 53 53 58 57 56 59 58 60 59 56 55 55 54
57 58 50 48 46 47 51 45 42 40 40 37 39 42 41 39 40 41 43 44 46 49 52 51 53 56 55 56 54 55 55 54 54
51 57 52 49 47 47 52 52 47 46 47 45 42 43 42 42 41 42 45 47 45 41 46 51 51 52 55 52 52 52 53 54 54
53 52 54 46 47 47 48 55 56 55 54 53 52 48 50 50 50 49 49 47 51 49 47 43 45 53 54 56 57 58 60 59 60
56 54 48 42 43 45 47 51 56 64 66 62 61 63 64 61 60 60 57 54 55 55 57 51 49 52 53 54 56 59 62 63 62
53 48 48 44 42 44 45 48 51 57 64 69 70 70 71 71 68 66 64 63 61 58 59 60 57 59 57 57 55 57 59 60 61
48 48 48 47 45 44 44 44 49 50 52 57 60 61 63 64 64 64 66 66 66 65 63 65 65 63 61 59 59 61 59 63 64
50 50 49 51 48 45 45 42 44 47 48 51 53 56 56 57 60 64 64 65 66 63 63 64 65 67 69 66 62 65 67 67 69
56 55 51 50 51 47 46 44 42 45 45 48 50 53 54 56 59 61 63 62 64 66 69 69 67 63 62 65 65 66 68 69 68
60 61 57 54 50 52 49 46 43 45 46 48 50 51 51 52 59 62 63 60 61 61 62 63 67 68 67 64 68 69 70 72 73
66 62 61 55 55 53 52 53 48 47 47 49 50 49 49 50 53 57 63 69 69 70 70 72 73 73 71 70 69 68 71 70 73
72 66 67 61 58 61 56 54 53 51 51 52 53 53 51 50 50 52 54 58 64 70 75 75 79 79 79 80 82 83 84 84 84
Wind_Direction
321 316 266 242 236 234 239 238 236 235 232 236 235 232 237 236 238 239 239 241 239 240 243 246 247 250 249 252 257 258 264 266 267
321 321 283 252 246 242 239 239 241 236 234 240 240 238 240 240 244 243 241 240 241 244 248 248 248 249 253 259 260 260 260 263 265
316 323 300 261 255 250 252 246 241 244 240 239 240 239 241 243 249 249 249 247 246 246 247 250 253 252 255 257 259 260 261 265 269
313 317 317 271 260 267 262 254 247 244 244 246 246 246 245 246 248 251 254 255 253 254 256 257 259 258 259 257 260 260 264 268 270
310 314 320 299 259 270 264 266 255 249 247 248 249 251 251 251 252 252 254 254 254 257 258 258 254 257 257 259 259 264 266 270 274
309 312 315 299 281 258 270 261 254 253 251 246 247 249 250 252 250 249 252 251 253 254 256 258 258 258 258 256 258 261 263 267 269
307 308 313 299 284 267 262 269 259 250 248 245 247 249 249 250 249 248 247 248 253 253 249 251 253 254 252 254 256 261 264 263 268
299 303 307 299 284 269 257 262 255 249 250 249 246 247 246 249 249 248 247 244 246 246 249 252 249 250 254 253 256 263 264 265 266
297 297 306 293 282 264 257 254 253 253 247 250 250 249 249 250 248 247 247 245 245 248 246 247 252 254 254 258 264 260 261 262 261
292 294 302 294 279 267 251 247 248 249 241 247 256 248 245 244 245 245 246 247 245 247 247 247 249 253 255 256 257 258 257 259 262
286 291 294 289 279 268 255 243 241 243 243 247 253 247 246 246 248 248 249 246 244 243 249 246 245 248 251 250 246 251 252 254 256
288 290 287 275 275 273 262 249 237 240 244 248 247 245 249 252 252 252 251 248 241 238 245 250 252 247 247 250 253 254 253 256 258
285 284 270 273 274 276 268 256 248 242 239 242 248 252 254 253 253 252 253 249 245 242 241 247 255 256 255 256 255 254 254 255 257
280 272 269 270 275 279 273 262 253 247 245 243 244 250 253 255 253 253 252 251 248 246 246 247 252 257 255 255 256 256 253 250 253
270 267 267 269 272 278 279 267 258 253 250 249 248 249 250 250 250 250 251 250 249 250 250 250 251 255 258 258 257 256 255 253 252
266 265 268 269 266 274 279 277 263 257 256 255 255 254 251 250 248 247 248 248 247 249 251 253 254 254 256 256 254 251 253 257 256
264 263 268 273 266 270 276 280 271 263 260 258 255 253 254 251 250 248 247 247 249 250 251 253 255 255 255 254 253 251 252 254 254
263 264 262 270 271 268 270 277 277 269 264 261 256 254 253 251 250 250 247 246 248 247 251 254 255 255 254 254 254 255 255 254 254
265 266 260 267 269 271 266 272 278 272 266 263 257 256 254 253 252 251 247 246 250 247 247 247 249 251 254 255 256 251 252 255 256
262 263 264 262 267 270 265 266 272 274 267 264 260 256 253 252 252 254 252 249 250 248 249 253 253 254 254 252 253 254 255 256 260